Mathieu Hamelin

Mathieu Hamelin

Statistiques 2026

  • Courses courues : 24
  • Nb de victoires : -
  • Nb de places : 6
  • Écart gagnant : 40
  • Réussite à la gagne : -
  • Réussite à la place : 25%
Musique : 4a 4a Da 2a 5a 7a 2a 3a 2a 7a 8a 3a 0a 5a 6a 8a 4a Da
DateRangCatégorieAlloc.Dist.HippodromeChevalRed. KmSpé.
31/08/13 2 Trot 25 000€ 2 700m Graignes Salinero 1'17"0 Attelé
27/08/13 1 Trot 26 000€ 2 050m Cabourg Sibelle du Luot 1'13"4 Attelé lire

Longtemps troisième, est venue dominer la situation dans les derniers cent mètres.

26/08/13 0 Trot 16 000€ 2 775m Craon Upia du Sound Attelé
25/08/13 1 Mixte 12 000€ 2 475m Royan La Palmyre Ulysse Gilaudiere 1'21"1 Attelé
18/08/13 2 Trot 14 000€ 2 525m Gournay En Bray Ua Uka du Fosse Attelé
16/08/13 0 Mixte 20 000€ 2 700m Plouescat Tortezais Attelé
16/08/13 7 Mixte 11 000€ 2 725m Plouescat Ulysse Gilaudiere Attelé
15/08/13 D Trot 11 000€ 2 700m Plouescat Tequila d'Argentre Attelé
15/08/13 6 Trot 11 000€ 2 700m Plouescat Viril Kerzu Attelé
14/08/13 5 Trot 21 000€ 2 675m Le Mont Saint Michel Upia du Sound 1'17"7 Attelé
14/08/13 4 Trot 22 000€ 2 700m Le Mont Saint Michel Sibelle du Luot 1'16"2 Attelé
06/08/13 8 Trot 13 000€ 2 725m Avranches Utopie Attelé
05/08/13 8 Trot 15 000€ 2 625m Blain Tortezais Attelé
05/08/13 2 Trot 13 000€ 2 600m Blain Verte Soiree Attelé
05/08/13 8 Trot 14 000€ 2 600m Blain Upia du Sound Attelé
04/08/13 1 Mixte 12 000€ 2 975m Dinan Ulysse Gilaudiere TNC Attelé
30/07/13 5 Trot 26 000€ 2 050m Cabourg Sibelle du Luot 1'15"6 Attelé lire

Longtemps au sein du peloton, a gagner du terrain tout au long de la phase finale.

28/07/13 8 Mixte 11 000€ 2 900m Guerlesquin Upia du Sound Attelé
24/07/13 D Trot 12 000€ 2 700m Le Mont Saint Michel Seltik Derro Attelé
21/07/13 3 Trot 11 000€ 2 225m Luxe Verte Soiree Attelé
21/07/13 8 Trot 11 000€ 2 225m Luxe Viril Kerzu Attelé
20/07/13 1 Trot 14 000€ 2 700m Segre Tortezais TNC Attelé
18/07/13 6 Trot 14 000€ 2 600m Montignac Ua Uka du Fosse 1'21"9 Attelé
14/07/13 D Trot 11 000€ 2 625m Genets Valeur du Bleutour Attelé
08/07/13 3 Mixte 11 000€ 3 125m Granville Verte Soiree Attelé
07/07/13 4 Mixte 20 000€ 2 400m Nort Sur Erdre Tortezais Attelé
05/07/13 3 Trot 13 000€ 2 875m Villedieu Les Poeles Ua Uka du Fosse Attelé
23/06/13 3 Mixte 12 000€ 2 200m Gemozac Verte Soiree Attelé
04/06/13 D Trot 20 000€ 2 100m Vincennes Uro des Liches Attelé lire

Malheureux au bout de la ligne opposée, a pris le galop à la sortie du tournant final.

02/06/13 2 Trot 12 000€ 2 925m Bourigny Tigre de Guez Attelé
27/05/13 8 Mixte 16 000€ 2 825m Vire Tortezais 1'19"4 Attelé
26/05/13 4 Trot 45 000€ 3 600m Niort Reine Helene 1'18"0 Attelé
25/05/13 0 Trot 26 000€ 2 900m Argentan Samba Force Attelé
20/05/13 8 Mixte 15 000€ 3 100m Nort Sur Erdre Ulysse Gilaudiere Attelé
19/05/13 6 Mixte 16 000€ 3 125m Granville Tortezais Attelé
19/05/13 4 Mixte 11 000€ 3 125m Granville Very Cool d'Eb Attelé
19/05/13 0 Mixte 11 000€ 3 125m Granville Vivaldi de Tyrole Attelé
16/05/13 0 Trot 18 000€ 2 825m Cholet Upia du Sound Attelé
15/05/13 8 Trot 150 000€ 2 450m Caen Ru de l'Airou 1'14"1 Attelé lire

A toujours trotté en queue de peloton.

08/05/13 2 Mixte 13 000€ 2 600m Landivisiau Ulysse Gilaudiere Attelé
01/05/13 8 Trot 13 000€ 2 750m Evreux Upia du Sound Attelé
22/04/13 6 Trot 22 000€ 2 850m Maure De Bretagne Tortezais 1'18"6 Attelé
21/04/13 7 Trot 13 000€ 2 700m Le Mont Saint Michel Upia du Sound 1'18"6 Attelé
14/04/13 9 Mixte 12 000€ 3 275m Saumur Viril Kerzu Attelé
14/04/13 2 Mixte 13 000€ 3 250m Saumur Union de Bouere Attelé
07/04/13 0 Mixte 16 000€ 2 850m Loudeac Ulysse Gilaudiere Attelé
07/04/13 1 Mixte 14 000€ 2 850m Loudeac Upia du Sound TNC Attelé
07/04/13 4 Mixte 15 000€ 2 250m Loudeac Tortezais Attelé
31/03/13 D Trot 12 000€ 2 800m Vire Upia du Sound Attelé
24/03/13 0 Mixte 12 000€ 2 825m Cholet Upia du Sound Attelé